GHARV ENGR-ENGS

Flight info

Callsign GHARV
Flight time N/A
Altitude 4500
Route XES0003 XEN0015
Aircraft BE36/L-ICAO/YES

Departure

Time N/A
Airport ENGR

Arrival

Time 2026-04-29 19:05
Airport Snåsa Airfield Grønøra (ENGS)
Time Latitude Longitude Altitude Speed Heading
2026-04-29 17:35 64.39710 12.33801 426 ft 0 kts 86°
2026-04-29 18:01 64.39728 12.33864 420 ft 9 kts 76°
2026-04-29 18:01 64.39722 12.33888 419 ft 0 kts 144°
2026-04-29 18:01 64.39721 12.33891 419 ft 7 kts 145°
2026-04-29 18:02 64.39437 12.34179 422 ft 75 kts 160°
2026-04-29 18:02 64.38954 12.34455 773 ft 63 kts 179°
2026-04-29 18:02 64.38487 12.34769 991 ft 81 kts 140°
2026-04-29 18:02 64.38294 12.35962 1319 ft 90 kts 93°
2026-04-29 18:03 64.38306 12.37540 1607 ft 104 kts 77°
2026-04-29 18:03 64.38430 12.39248 1880 ft 119 kts 81°
2026-04-29 18:03 64.38598 12.41250 2023 ft 129 kts 76°
2026-04-29 18:03 64.38835 12.43360 2023 ft 142 kts 75°
2026-04-29 18:04 64.39075 12.45616 2006 ft 150 kts 81°
2026-04-29 18:04 64.38741 12.47959 1845 ft 162 kts 129°
2026-04-29 18:04 64.38053 12.49859 1950 ft 156 kts 122°
2026-04-29 18:04 64.37704 12.52410 1491 ft 172 kts 111°
2026-04-29 18:05 64.36840 12.53704 1581 ft 145 kts 160°
2026-04-29 18:05 64.35941 12.54755 1395 ft 142 kts 131°
2026-04-29 18:05 64.35650 12.56706 1495 ft 124 kts 92°
2026-04-29 18:05 64.35644 12.58660 1518 ft 119 kts 87°
2026-04-29 18:06 64.35706 12.60522 1552 ft 114 kts 82°
2026-04-29 18:06 64.35791 12.62323 1597 ft 110 kts 84°
2026-04-29 18:06 64.35834 12.64074 1612 ft 110 kts 85°
2026-04-29 18:06 64.35882 12.65814 1632 ft 109 kts 88°
2026-04-29 18:07 64.35856 12.67573 1632 ft 110 kts 96°
2026-04-29 18:07 64.35801 12.69308 1648 ft 109 kts 87°
2026-04-29 18:07 64.35930 12.71052 1642 ft 110 kts 83°
2026-04-29 18:07 64.35987 12.72888 1706 ft 122 kts 81°
2026-04-29 18:08 64.36156 12.74816 1918 ft 123 kts 76°
2026-04-29 18:08 64.36348 12.76737 2152 ft 123 kts 76°
2026-04-29 18:08 64.36588 12.78659 2302 ft 129 kts 73°
2026-04-29 18:08 64.36861 12.80712 2475 ft 136 kts 70°
2026-04-29 18:09 64.37333 12.82637 2514 ft 140 kts 50°
2026-04-29 18:09 64.38040 12.84287 2433 ft 147 kts 44°
2026-04-29 18:09 64.38776 12.85809 2560 ft 140 kts 43°
2026-04-29 18:09 64.39320 12.87705 2503 ft 146 kts 73°
2026-04-29 18:10 64.39420 12.89939 2689 ft 134 kts 85°
2026-04-29 18:10 64.39599 12.92068 2717 ft 138 kts 74°
2026-04-29 18:10 64.39986 12.94107 2784 ft 137 kts 62°
2026-04-29 18:10 64.40453 12.96010 2801 ft 140 kts 58°
2026-04-29 18:11 64.40857 12.98059 2824 ft 141 kts 75°
2026-04-29 18:11 64.40974 13.00308 2893 ft 139 kts 88°
2026-04-29 18:11 64.40942 13.02529 2937 ft 139 kts 91°
2026-04-29 18:11 64.40948 13.04776 2979 ft 139 kts 88°
2026-04-29 18:12 64.40974 13.06982 3031 ft 139 kts 89°
2026-04-29 18:12 64.40955 13.09224 3068 ft 140 kts 92°
2026-04-29 18:12 64.40874 13.11471 3094 ft 141 kts 96°
2026-04-29 18:12 64.40771 13.13734 3099 ft 143 kts 96°
2026-04-29 18:13 64.40619 13.15995 3127 ft 142 kts 98°
2026-04-29 18:13 64.40564 13.18278 3148 ft 143 kts 90°
2026-04-29 18:13 64.40615 13.20569 3169 ft 143 kts 83°
2026-04-29 18:13 64.40629 13.22883 3183 ft 143 kts 92°
2026-04-29 18:14 64.40651 13.25155 3216 ft 142 kts 88°
2026-04-29 18:14 64.40538 13.27423 3222 ft 143 kts 110°
2026-04-29 18:14 64.40013 13.29318 3319 ft 138 kts 127°
2026-04-29 18:14 64.39421 13.31082 3335 ft 140 kts 124°
2026-04-29 18:15 64.38916 13.32969 3412 ft 138 kts 117°
2026-04-29 18:15 64.38433 13.34913 3389 ft 143 kts 118°
2026-04-29 18:15 64.37942 13.36884 3438 ft 141 kts 122°
2026-04-29 18:15 64.37341 13.38692 3434 ft 143 kts 123°
2026-04-29 18:16 64.36842 13.40689 3426 ft 145 kts 118°
2026-04-29 18:16 64.36359 13.42800 3349 ft 150 kts 116°
2026-04-29 18:16 64.35867 13.44937 3309 ft 151 kts 118°
2026-04-29 18:16 64.35346 13.47025 3292 ft 150 kts 118°
2026-04-29 18:17 64.34853 13.49146 3272 ft 150 kts 118°
2026-04-29 18:17 64.34342 13.51227 3184 ft 154 kts 120°
2026-04-29 18:17 64.33772 13.53384 3036 ft 159 kts 121°
2026-04-29 18:17 64.33052 13.55318 2985 ft 156 kts 136°
2026-04-29 18:18 64.32227 13.56915 2934 ft 155 kts 140°
2026-04-29 18:18 64.31434 13.58602 2849 ft 157 kts 136°
2026-04-29 18:18 64.30607 13.60233 2798 ft 156 kts 139°
2026-04-29 18:18 64.29778 13.61843 2721 ft 157 kts 139°
2026-04-29 18:19 64.28962 13.63472 2657 ft 156 kts 138°
2026-04-29 18:19 64.28156 13.65157 2605 ft 156 kts 136°
2026-04-29 18:19 64.27383 13.66909 2536 ft 156 kts 134°
2026-04-29 18:19 64.26647 13.68726 2480 ft 156 kts 131°
2026-04-29 18:20 64.25950 13.70612 2426 ft 155 kts 129°
2026-04-29 18:20 64.25289 13.72578 2366 ft 156 kts 127°
2026-04-29 18:20 64.24629 13.74534 2322 ft 155 kts 135°
2026-04-29 18:20 64.23804 13.76067 2332 ft 151 kts 141°
2026-04-29 18:21 64.22990 13.77590 2334 ft 150 kts 140°
2026-04-29 18:21 64.22208 13.79145 2334 ft 149 kts 138°
2026-04-29 18:21 64.21444 13.80733 2334 ft 148 kts 137°
2026-04-29 18:21 64.20595 13.82024 2332 ft 148 kts 157°
2026-04-29 18:22 64.19623 13.82821 2334 ft 148 kts 161°
2026-04-29 18:22 64.18653 13.83574 2334 ft 148 kts 161°
2026-04-29 18:22 64.17682 13.84334 2334 ft 148 kts 161°
2026-04-29 18:22 64.16715 13.85095 2334 ft 148 kts 161°
2026-04-29 18:23 64.15847 13.86298 2337 ft 147 kts 136°
2026-04-29 18:23 64.15144 13.87995 2336 ft 148 kts 132°
2026-04-29 18:23 64.14454 13.89731 2335 ft 148 kts 132°
2026-04-29 18:23 64.13766 13.91462 2335 ft 148 kts 131°
2026-04-29 18:24 64.13079 13.93214 2334 ft 148 kts 132°
2026-04-29 18:24 64.12395 13.94946 2334 ft 148 kts 131°
2026-04-29 18:24 64.11700 13.96701 2334 ft 148 kts 131°
2026-04-29 18:24 64.11015 13.98433 2334 ft 148 kts 131°
2026-04-29 18:25 64.10320 14.00185 2334 ft 148 kts 131°
2026-04-29 18:25 64.09635 14.01907 2334 ft 148 kts 131°
2026-04-29 18:25 64.08941 14.03655 2334 ft 148 kts 131°
2026-04-29 18:25 64.08259 14.05376 2334 ft 148 kts 132°
2026-04-29 18:26 64.07563 14.07123 2334 ft 148 kts 131°
2026-04-29 18:26 64.06872 14.08870 2334 ft 148 kts 131°
2026-04-29 18:26 64.06182 14.10605 2334 ft 148 kts 131°
2026-04-29 18:26 64.05493 14.12333 2334 ft 148 kts 131°
2026-04-29 18:27 64.04742 14.13860 2323 ft 148 kts 155°
2026-04-29 18:27 64.03737 14.13936 2323 ft 148 kts 199°
2026-04-29 18:27 64.02830 14.12843 2333 ft 147 kts 210°
2026-04-29 18:27 64.01962 14.11620 2334 ft 147 kts 212°
2026-04-29 18:28 64.01093 14.10362 2335 ft 147 kts 212°
2026-04-29 18:28 64.00237 14.09123 2335 ft 147 kts 212°
2026-04-29 18:28 63.99369 14.07852 2334 ft 148 kts 212°
2026-04-29 18:28 63.98509 14.06591 2334 ft 147 kts 212°
2026-04-29 18:29 63.97653 14.05332 2334 ft 147 kts 212°
2026-04-29 18:29 63.97079 14.04487 2334 ft 147 kts 212°
2026-04-29 18:29 63.95937 14.02806 2334 ft 147 kts 212°
2026-04-29 18:29 63.95078 14.01542 2334 ft 147 kts 212°
2026-04-29 18:30 63.94224 14.00286 2334 ft 147 kts 212°
2026-04-29 18:30 63.93368 13.99025 2334 ft 147 kts 212°
2026-04-29 18:30 63.92511 13.97766 2334 ft 147 kts 212°
2026-04-29 18:30 63.91646 13.96496 2334 ft 147 kts 212°
2026-04-29 18:31 63.90789 13.95237 2334 ft 147 kts 212°
2026-04-29 18:31 63.89927 13.93975 2334 ft 147 kts 212°
2026-04-29 18:31 63.89072 13.92722 2334 ft 147 kts 212°
2026-04-29 18:31 63.88272 13.91503 2618 ft 127 kts 214°
2026-04-29 18:32 63.87556 13.90363 2734 ft 128 kts 213°
2026-04-29 18:32 63.86128 13.87960 2904 ft 132 kts 214°
2026-04-29 18:32 63.85336 13.86925 2956 ft 134 kts 211°
2026-04-29 18:33 63.84595 13.85599 2988 ft 136 kts 221°
2026-04-29 18:33 63.83821 13.84393 3044 ft 137 kts 206°
2026-04-29 18:33 63.82936 13.83401 2956 ft 146 kts 206°
2026-04-29 18:33 63.82053 13.82401 3054 ft 140 kts 204°
2026-04-29 18:34 63.81173 13.81452 3042 ft 143 kts 211°
2026-04-29 18:34 63.80646 13.80545 3109 ft 139 kts 217°
2026-04-29 18:34 63.79655 13.78610 3072 ft 145 kts 227°
2026-04-29 18:34 63.78984 13.76953 3136 ft 141 kts 227°
2026-04-29 18:35 63.78386 13.75196 3138 ft 143 kts 233°
2026-04-29 18:35 63.77729 13.73499 3156 ft 143 kts 223°
2026-04-29 18:35 63.76924 13.72194 3253 ft 145 kts 207°
2026-04-29 18:35 63.76092 13.71008 3287 ft 146 kts 226°
2026-04-29 18:36 63.75354 13.69345 3238 ft 151 kts 222°
2026-04-29 18:36 63.74578 13.67770 3266 ft 149 kts 222°
2026-04-29 18:36 63.73760 13.66338 3263 ft 150 kts 217°
2026-04-29 18:36 63.72971 13.64811 3269 ft 150 kts 222°
2026-04-29 18:37 63.72196 13.63250 3286 ft 149 kts 217°
2026-04-29 18:37 63.71285 13.62077 3250 ft 152 kts 211°
2026-04-29 18:37 63.70480 13.60517 3093 ft 161 kts 228°
2026-04-29 18:37 63.69769 13.58410 2572 ft 177 kts 238°
2026-04-29 18:38 63.69346 13.55849 2346 ft 168 kts 258°
2026-04-29 18:38 63.69220 13.53353 2320 ft 155 kts 266°
2026-04-29 18:38 63.69163 13.50988 2228 ft 150 kts 266°
2026-04-29 18:38 63.69098 13.48673 2169 ft 146 kts 266°
2026-04-29 18:39 63.69011 13.46411 2090 ft 144 kts 264°
2026-04-29 18:39 63.68890 13.44194 2018 ft 143 kts 260°
2026-04-29 18:39 63.68706 13.41996 1974 ft 141 kts 258°
2026-04-29 18:39 63.68481 13.39879 1965 ft 137 kts 258°
2026-04-29 18:40 63.68233 13.37775 2021 ft 141 kts 252°
2026-04-29 18:40 63.67981 13.35669 2112 ft 141 kts 262°
2026-04-29 18:40 63.68147 13.33508 2147 ft 144 kts 298°
2026-04-29 18:40 63.68727 13.31625 2159 ft 147 kts 307°
2026-04-29 18:41 63.70676 13.26166 2230 ft 150 kts 304°
2026-04-29 18:41 63.71190 13.24151 2224 ft 152 kts 289°
2026-04-29 18:42 63.71439 13.21874 2311 ft 147 kts 282°
2026-04-29 18:42 63.71611 13.19582 2301 ft 151 kts 278°
2026-04-29 18:42 63.71719 13.17220 2331 ft 150 kts 271°
2026-04-29 18:42 63.71731 13.14891 2386 ft 149 kts 269°
2026-04-29 18:43 63.71730 13.12548 2391 ft 150 kts 269°
2026-04-29 18:43 63.71668 13.10193 2420 ft 150 kts 263°
2026-04-29 18:43 63.71622 13.07844 2436 ft 150 kts 268°
2026-04-29 18:43 63.71610 13.05522 2479 ft 149 kts 268°
2026-04-29 18:44 63.71706 13.03175 2436 ft 154 kts 284°
2026-04-29 18:44 63.72086 13.00960 2473 ft 150 kts 296°
2026-04-29 18:44 63.72622 12.98948 2438 ft 151 kts 303°
2026-04-29 18:44 63.73248 12.97033 2422 ft 150 kts 308°
2026-04-29 18:45 63.73923 12.95279 2407 ft 150 kts 315°
2026-04-29 18:45 63.74683 12.93789 2281 ft 131 kts 322°
2026-04-29 18:45 63.75353 12.92651 2049 ft 115 kts 324°
2026-04-29 18:45 63.75978 12.91570 1909 ft 108 kts 318°
2026-04-29 18:46 63.76499 12.90385 1726 ft 105 kts 313°
2026-04-29 18:46 63.76976 12.89278 1661 ft 94 kts 314°
2026-04-29 18:46 63.77417 12.88263 1641 ft 91 kts 321°
2026-04-29 18:46 63.78024 12.88184 1879 ft 99 kts 23°
2026-04-29 18:47 63.78680 12.88794 2193 ft 111 kts 17°
2026-04-29 18:47 63.79430 12.89581 2467 ft 121 kts 30°
2026-04-29 18:47 63.80142 12.90762 2686 ft 134 kts 37°
2026-04-29 18:47 63.80877 12.92007 3015 ft 134 kts 32°
2026-04-29 18:48 63.81751 12.92845 3248 ft 139 kts 23°
2026-04-29 18:48 63.82557 12.93956 3606 ft 135 kts 27°
2026-04-29 18:48 63.83456 12.94655 3856 ft 139 kts
2026-04-29 18:48 63.84446 12.94893 3742 ft 166 kts
2026-04-29 18:49 63.85632 12.94828 3650 ft 169 kts 341°
2026-04-29 18:49 63.86687 12.93604 3499 ft 172 kts 326°
2026-04-29 18:49 63.87584 12.91927 3526 ft 164 kts 316°
2026-04-29 18:49 63.88414 12.90123 3412 ft 168 kts 317°
2026-04-29 18:50 63.89306 12.88387 3270 ft 171 kts 319°
2026-04-29 18:50 63.90207 12.86652 3192 ft 169 kts 319°
2026-04-29 18:50 63.91079 12.84877 3113 ft 168 kts 317°
2026-04-29 18:50 63.91938 12.83075 3020 ft 168 kts 310°
2026-04-29 18:51 63.92461 12.80810 3024 ft 165 kts 289°
2026-04-29 18:51 63.92952 12.78365 2760 ft 174 kts 295°
2026-04-29 18:51 63.93418 12.75915 2843 ft 162 kts 290°
2026-04-29 18:51 63.93603 12.73483 2869 ft 161 kts 272°
2026-04-29 18:52 63.93620 12.70993 3044 ft 148 kts 271°
2026-04-29 18:52 63.93834 12.68794 3055 ft 144 kts 303°
2026-04-29 18:52 63.94603 12.67399 3097 ft 136 kts 328°
2026-04-29 18:52 63.95504 12.66696 3018 ft 142 kts 355°
2026-04-29 18:53 63.96330 12.66700 3073 ft 116 kts
2026-04-29 18:53 63.97136 12.66846 2583 ft 118 kts
2026-04-29 18:53 63.97936 12.67052 2077 ft 109 kts
2026-04-29 18:53 63.98629 12.67401 1842 ft 97 kts 13°
2026-04-29 18:54 63.99231 12.67808 1777 ft 87 kts 21°
2026-04-29 18:54 63.99773 12.68280 1686 ft 81 kts
2026-04-29 18:54 64.00332 12.68277 1545 ft 78 kts 354°
2026-04-29 18:54 64.00848 12.68200 1469 ft 70 kts 358°
2026-04-29 18:55 64.01321 12.68140 1456 ft 80 kts 356°
2026-04-29 18:55 64.01826 12.68242 1833 ft 59 kts 30°
2026-04-29 18:55 64.02238 12.68557 2106 ft 62 kts 349°
2026-04-29 18:55 64.02769 12.68682 2204 ft 95 kts 14°
2026-04-29 18:56 64.03279 12.68323 2627 ft 87 kts 308°
2026-04-29 18:56 64.03734 12.67044 2693 ft 120 kts 306°
2026-04-29 18:56 64.03982 12.65159 2894 ft 131 kts 266°
2026-04-29 18:56 64.03997 12.63035 3183 ft 134 kts 274°
2026-04-29 18:57 64.04099 12.61027 3604 ft 127 kts 275°
2026-04-29 18:57 64.04117 12.58956 3791 ft 137 kts 264°
2026-04-29 18:57 64.03915 12.56848 4065 ft 139 kts 255°
2026-04-29 18:57 64.03966 12.54765 3492 ft 181 kts 345°
2026-04-29 18:58 64.05103 12.54295 3957 ft 153 kts 349°
2026-04-29 18:58 64.06289 12.53639 3420 ft 187 kts 343°
2026-04-29 18:58 64.07491 12.52746 3464 ft 180 kts 345°
2026-04-29 18:58 64.08686 12.51905 3387 ft 182 kts 337°
2026-04-29 18:59 64.09831 12.50670 3390 ft 178 kts 331°
2026-04-29 18:59 64.10918 12.49492 3502 ft 173 kts 333°
2026-04-29 18:59 64.11941 12.48068 3499 ft 174 kts 326°
2026-04-29 18:59 64.12997 12.46554 3269 ft 187 kts 329°
2026-04-29 19:00 64.14127 12.44987 3115 ft 188 kts 330°
2026-04-29 19:00 64.15293 12.43770 3039 ft 186 kts 338°
2026-04-29 19:00 64.16512 12.42729 2913 ft 187 kts 339°
2026-04-29 19:00 64.17752 12.41840 2766 ft 189 kts 349°
2026-04-29 19:01 64.19007 12.41004 2639 ft 188 kts 328°
2026-04-29 19:01 64.19859 12.38741 2447 ft 190 kts 309°
2026-04-29 19:01 64.20688 12.36496 2448 ft 184 kts 310°
2026-04-29 19:01 64.21518 12.34308 2472 ft 180 kts 310°
2026-04-29 19:02 64.22234 12.32306 2052 ft 158 kts 304°
2026-04-29 19:02 64.22488 12.30835 1768 ft 136 kts 270°
2026-04-29 19:02 64.22214 12.28696 1381 ft 95 kts 241°
2026-04-29 19:02 64.21891 12.27519 1111 ft 81 kts 234°
2026-04-29 19:03 64.21591 12.26451 931 ft 80 kts 236°
2026-04-29 19:03 64.21320 12.25371 871 ft 79 kts 241°
2026-04-29 19:03 64.21057 12.24230 761 ft 84 kts 239°
2026-04-29 19:03 64.20721 12.23081 651 ft 87 kts 233°
2026-04-29 19:04 64.20361 12.22021 615 ft 82 kts 229°
2026-04-29 19:04 64.20007 12.21069 696 ft 74 kts 228°
2026-04-29 19:04 64.19624 12.20159 567 ft 83 kts 222°
2026-04-29 19:04 64.19236 12.19257 475 ft 72 kts 224°
2026-04-29 19:05 64.18877 12.18463 270 ft 71 kts 225°
2026-04-29 19:05 64.18561 12.17674 99 ft 65 kts 225°
2026-04-29 19:05 64.18313 12.17058 82 ft 24 kts 231°
2026-04-29 19:05 64.18276 12.17011 82 ft 0 kts 149°
2026-04-29 19:06 64.18267 12.17110 82 ft 9 kts 103°
2026-04-29 19:06 64.18258 12.17156 82 ft 4 kts 68°
2026-04-29 19:06 64.18261 12.17162 82 ft 0 kts 28°